STARLINK-4305, 53060

Orbit data source: Space-Track

STARLINK-4305, 53060 is a payload satellite owned by SpaceX/Seattle (US) in SSO that was launched on Mon, 11 Jul 2022 UTC via an FALCON 9 launch vehicle from the Air Force Western Test Range (AFWTR). Payload-class satellites include a variety of spacecraft equipped with specific instruments for various scientific and technological missions. These include communications satellites like Starlink; space stations such as the ISS; scientific satellites like the Hubble; Earth observation satellites from companies like Planet Labs, Umbra, and HawkEye 360; GPS; miniature CubeSats for education and research; and military/defense satellites.

Loading next visibility...
Identifier
53060, 2022-077T
Orbit
SSO
Country
Flag of USUS
Related business
Manufacturer
SpaceX/Seattle
Mission
Operational Commercial Communications
Bus & Motor
STARLINK, Unknown motor
Mass
297 kg wet, ~275 kg dry
Launch date (UTC)
2022-07-11 (4 years ago)
Launch vehicle
FALCON 9
Launch site
Air Force Western Test Range (AFWTR)
Object type
Payload
Rocket body
Debris
Shape & HBR
Box + 1 Pan, 10.1 m
Radar Cross Section
13.562 m², Large (>1 m²)

Expand to show TLE details & history
Last TLE update: 2 days ago

TLE from 2 days ago
0 STARLINK-4305
1 53060U 22077T   26171.44177678 -.00001141  00000-0 -75109-4 0  9998
2 53060  97.3344 350.2141 0001885  86.2937 273.8506 15.05663129216366
Epoch: 2026-06-20T10:36Z
TLE epoch observation values (Epoch: 2026-06-20T10:36:09.513Z)
Latitude
-0.00005°
Longitude
-77.48188°
Altitude
552.456 km
Speed
7.586 km/s
True Right ascension
23h 20m 51s
True Declination
0° 00' 00"
Sunlit
Object was in daylight at epoch
Visualization orbit readout
Latitude
Unknown
Longitude
Unknown
Altitude
Unknown
Speed
Unknown
Apparent Right ascension
Unknown
Apparent Declination
Unknown
Sunlit
N/A
Visualization observer readout
Local Sidereal Time
23:21:00
Azimuth
Unknown
Elevation
Unknown
Doppler factor
Unknown
Orbital elements
Apogee altitude
547.758 km
Perigee altitude
545.148 km
Semi-major axis
6,924.59 km
Eccentricity
0.00019
Inclination
97.3344°
RAAN
350.2141°
Arg. of periapsis
86.2937°
True anomaly
273.82905°
Mean anomaly
273.8506°
Eccentric anomaly
273.83982°
Mean motion
3.76662 °/min
Orbital period
95.58 mins
BSTAR
-0.000075109
Loading maneuver chart data...
Computing Atmospheric mass density...
Loading historical data...
Loading historical data...
Loading historical data...
Loading historical data...
Loading historical data...
Loading historical data...
Loading historical data...

Documentation

Showing up to 5 results
|